Regional Weather Roundup
Issued by NWS

Home | Current Version | Previous Version | Text Only | Print | Product List | Glossary Off
Versions: 1 2 3 4 5 6 7 8 9 10 11 12 13 14 15 16 17 18 19 20 21 22 23 24 25 26 27 28 29 30 31 32 33 34 35 36 37 38 39 40 41 42 43 44 45 46 47 48 49 50

000
ASUS43 KLMK 182110
RWRKY
NATIONAL WEATHER SERVICE LOUISVILLE KY
400 PM EST SAT NOV 18 2017

NOTE "FAIR" INDICATES FEW OR NO CLOUDS BELOW 12,000 FEET
WITH NO SIGNIFICANT WEATHER AND/OR OBSTRUCTIONS TO VISIBILITY.

KYZ001>023-026-027-061>063-070>075-182200-
WESTERN AND SOUTH CENTRAL KENTUCKY

CITY           SKY/WX    TMP DP  RH WIND       PRES   REMARKS
PADUCAH        CLOUDY    51  45  79 NW21G38   29.53R
HENDERSON      LGT RAIN  50  47  89 NW33G41   29.45R
OWENSBORO      TSTM      58  57  97 W22G30    29.39R FOG
HOPKINSVILLE   CLOUDY    68  61  77 S22G32    29.39F
BOWLING GREEN  CLOUDY    67  62  84 SW21G31   29.41S
GLASGOW        CLOUDY    64  61  90 SW15G28   29.42R
$$

KYZ024-025-028>034-038-045-046-053-182200-
NORTH CENTRAL KENTUCKY

CITY           SKY/WX    TMP DP  RH WIND       PRES   REMARKS
LOUISVILLE/SDF LGT RAIN  67  59  75 S17G31    29.30F
LOUISVILLE/LOU LGT RAIN  66  61  84 S22G32    29.31F
FORT KNOX      LGT RAIN  64  59  82 S17G31    29.30F
$$

KYZ035>037-039>044-047>052-055>060-089>105-182200-
NORTHEAST KENTUCKY

CITY           SKY/WX    TMP DP  RH WIND       PRES   REMARKS
LEXINGTON      CLOUDY    63  56  78 S24G38    29.38F
COVINGTON      CLOUDY    64  59  83 S17G31    29.27F
FRANKFORT      CLOUDY    65  56  72 S22G37    29.34F
$$

KYZ054-064>069-076>088-106>120-182200-
SOUTHEAST KENTUCKY

CITY           SKY/WX    TMP DP  RH WIND       PRES   REMARKS
JACKSON        CLOUDY    62  50  64 S10G25    29.49F
LONDON         CLOUDY    64  52  64 S21G36    29.50F
SOMERSET       CLOUDY    59  52  77 S15G23    29.48F
MIDDLESBORO    DRIZZLE   58  53  83 S3G17     29.62F
MONTICELLO     LGT RAIN  58  56  93 SE12G23   29.50F
$$





USA.gov is the U.S. government's official web portal to all federal, state and local government web resources and services.